カタログに戻る

QIANFAN-169

運用中通信PO
NORAD 69386·PAYLOAD·🇨🇳 China

打ち上げ Jun 4, 2026 から Taiyuan Satellite Launch Center

Loading…

次のパス (今後24時間)

TLE

最新Source: Space-Track

元期: Sep 14, 2026, 21:57 UTC

1 69386U 26124E   26257.91505178  .00000132  00000-0  18658-3 0  9992
2 69386  89.0059 352.5804 0001877  98.9000 261.2364 13.51022658 14159

AllMySatでQIANFAN-169をリアルタイム追跡

Download on the App Store